Home   Weather   Appleton   Past weeks

Flag for USA Past Weather in Appleton, Wisconsin, USA — Yesterday and Last 2 Weeks

Now
61 °F

Passing clouds.


Feels Like: 61 °F
Forecast: 54 / 65 °F
Wind: 8 mph from Southeast

Location: Appleton / Outagamie

Current Time: Apr 25, 2017 at 9:28:23 pm

Latest Report: Apr 25, 2017 at 8:45 pm


Visibility: 10 mi

Pressure: 29.59 "Hg

Humidity: 63%

Dew Point: 48 °F

Location of AppletonLocation

Past Weather in Appleton — Graph

°F

Appleton Temperature Yesterday

Maximum temperature yesterday: 66 °F (at 2:45 pm)
Minimum temperature yesterday: 34 °F (at 4:35 am)
Average temperature yesterday: 47 °F

High & Low Weather Summary for the Past Weeks

 TemperatureHumidityPressure
High73 °F (Apr 25, 1:45 pm)100% (Apr 10, 7:45 pm)30.38 "Hg (Apr 10, 7:45 pm)
Low30 °F (Apr 12, 5:20 am)20% (Apr 22, 3:45 pm)29.57 "Hg (Apr 25, 4:45 pm)
Average48 °F68%30.03 "Hg
* Reported Apr 10 7:45 pm — Apr 25 7:45 pm, Appleton, Weather by CustomWeather, © 2017

Note: Actual official high and low records may vary slightly from our data, if they occured in-between our weather recording intervals... More about our weather records

Advertising

Appleton Weather History for the Previous 24 Hours

Scroll right to see more
 ConditionsComfort  
Time TempWeatherWind HumidityBarometerVisibility
7:45 pm
Tue, Apr 25
63 °FBroken clouds.7 mph56%29.58 "Hg10 mi
6:45 pm63 °FBroken clouds.9 mph56%29.58 "Hg10 mi
5:45 pm63 °FLight rain. Partly sunny.6 mph68%29.57 "Hg10 mi
4:45 pm68 °FPartly sunny.10 mph46%29.57 "Hg10 mi
3:45 pm72 °FScattered clouds.16 mph44%29.58 "Hg10 mi
2:45 pm73 °FScattered clouds.14 mph31%29.58 "Hg10 mi
1:45 pm73 °FScattered clouds.14 mph31%29.60 "Hg10 mi
12:45 pm70 °FScattered clouds.13 mph38%29.62 "Hg10 mi
11:45 am68 °FScattered clouds.14 mph38%29.64 "Hg10 mi
10:45 am64 °FPassing clouds.9 mph46%29.64 "Hg10 mi
9:45 am61 °FScattered clouds.15 mph52%29.65 "Hg10 mi
8:45 am55 °FScattered clouds.10 mph63%29.67 "Hg10 mi
7:45 am55 °FPartly sunny.10 mph55%29.67 "Hg10 mi
6:45 am54 °FPartly sunny.10 mph54%29.67 "Hg10 mi
5:45 am52 °FPassing clouds.9 mph54%29.67 "Hg10 mi
5:20 am52 °FPassing clouds.7 mph54%29.67 "Hg10 mi
4:55 am50 °FClear.7 mph50%29.67 "Hg10 mi
4:35 am50 °FClear.7 mph50%29.68 "Hg10 mi
4:15 am52 °FClear.8 mph47%29.69 "Hg10 mi
3:55 am52 °FClear.7 mph47%29.69 "Hg10 mi
3:35 am52 °FClear.5 mph44%29.70 "Hg10 mi
2:55 am52 °FClear.5 mph44%29.71 "Hg10 mi
2:15 am54 °FClear.5 mph38%29.73 "Hg10 mi
1:55 am55 °FClear.5 mph36%29.73 "Hg10 mi
1:35 am54 °FClear.8 mph44%29.74 "Hg10 mi
1:15 am55 °FPassing clouds.6 mph36%29.73 "Hg10 mi
12:55 am57 °FPassing clouds.6 mph33%29.76 "Hg10 mi
12:35 am55 °FPartly cloudy.3 mph36%29.77 "Hg10 mi
12:15 am57 °FClear.3 mph31%29.76 "Hg10 mi
11:55 pm
Mon, Apr 24
57 °FClear.9 mph31%29.74 "Hg10 mi
11:35 pm57 °FClear.12 mph31%29.73 "Hg10 mi
11:15 pm55 °FClear.9 mph38%29.75 "Hg10 mi
10:45 pm57 °FPassing clouds.7 mph33%29.75 "Hg10 mi
9:45 pm55 °FPassing clouds.9 mph38%29.75 "Hg10 mi
Weather by CustomWeather, © 2017

See weather overviewHow to use our weather pages